Regional Weather Roundup
Issued by NWS

Home | Current Version | Previous Version | Text Only | Print | Product List | Glossary Off
Versions: 1 2 3 4 5 6 7 8 9 10 11 12 13 14 15 16 17 18 19 20 21 22 23 24 25 26 27 28 29 30 31 32 33 34 35 36 37 38 39 40 41 42 43 44 45 46 47 48 49 50

779
ASUS43 KMPX 170910
RWRMN
WEATHER ROUNDUP FOR MINNESOTA
NATIONAL WEATHER SERVICE TWIN CITIES/CHANHASSEN MN
400 AM CDT THU AUG 17 2017


NOTE: "FAIR" INDICATES FEW OR NO CLOUDS BELOW 12,000 FEET WITH NO
SIGNIFICANT WEATHER AND/OR OBSTRUCTIONS TO VISIBILITY. N/A MEANS
CURRENT SKY AND/OR WEATHER CONDITIONS ARE NOT AVAILABLE.

MNZ060>063-068>070-171000-
   Twin Cities Metro

CITY           SKY/WX    TMP DP  RH WIND       PRES   REMARKS
TWIN CITIES    CLOUDY    67  64  90 SE9       29.49F
ST PAUL        CLOUDY    67  66  97 SE9       29.50F
CRYSTAL        LGT RAIN  67  63  87 SE8       29.47F FOG
BLAINE         CLOUDY    68  68 100 SE9       29.49S FOG
LAKEVILLE      CLOUDY    64  64 100 S8        29.49F
EDEN PRAIRIE   LGT RAIN  68  65  90 S9        29.46F
SOUTH ST PAUL  CLOUDY    66  66  99 SE8       29.50F
LAKE ELMO      CLOUDY    66  64  94 SE8       29.52F
$$
MNZ001>005-007-008-013>017-022>024-027-028-171000-
   Northwest Minnesota

CITY           SKY/WX    TMP DP  RH WIND       PRES   REMARKS
BEMIDJI        LGT RAIN  61  60  98 N5        29.75S
HALLOCK        CLOUDY    59  57  94 NW5       29.82S FOG
ROSEAU           N/A     63  57  82 N5        29.81S
WARROAD        CLOUDY    64  61  88 NE7       29.81S
THIEF RVR FALL CLOUDY    62  60  93 N14       29.80S
CROOKSTON      CLOUDY    63  61  94 N9        29.79F
FOSSTON        DRIZZLE   61  59  94 N8        29.77S
DETROIT LAKES  RAIN      63  63 100 N8        29.75S
MOORHEAD       CLOUDY    61  61 100 N10       29.77S
PARK RAPIDS    LGT RAIN  64  62  93 NE7       29.72S
MAHNOMEN       DRIZZLE   62  62  99 N9        29.75S
$$
MNZ006-009>011-018-025>026-171000-
   North Central Minnesota

CITY           SKY/WX    TMP DP  RH WIND       PRES   REMARKS
BAUDETTE       CLOUDY    60  60 100 NE7       29.79F
FLAG ISLAND    CLOUDY    63  57  82 NE3       29.81S
INTL FALLS     RAIN      61  59  93 NE5       29.80S FOG
WASKISH        LGT RAIN  61  59  94 NE8       29.77F
BIG FORK       RAIN      59  57  94 NE3       29.75F
LONGVILLE      RAIN      61  61 100 N5        29.71F
GRAND RAPIDS   HVY RAIN  60  59  96 NE3       29.72F FOG
CRANE LAKE     HVY RAIN  57  57 100 CALM      29.81S
ORR            LGT RAIN  57  55  94 CALM      29.75F
COOK           HVY RAIN  57  57 100 CALM      29.76F
WALKER         RAIN      60  59  98 N6        29.73R
$$
MNZ012-019>021-037-171000-
   Northeast Minnesota

CITY           SKY/WX    TMP DP  RH WIND       PRES   REMARKS
DULUTH         LGT RAIN  60  60 100 E14       29.67F FOG
ELY            RAIN      57  57 100 NE3       29.77F
HIBBING        LGT RAIN  58  57  97 NE9       29.71F
EVELETH        RAIN      58  55  89 NE10      29.72F
DULUTH HARBOR  LGT RAIN  63  61  94 NE31      29.65F
TWO HARBORS    LGT RAIN  63  57  82 E14       29.69S
SILVER BAY     DRIZZLE   61  59  94 NE9G18    29.69F
GRAND MARAIS     N/A     62  60  93 NE8       29.75F
G MARAIS ARPRT RAIN      57  54  88 NE9       29.80F
$$
MNZ029>031-032-039>041-046>048-054>057-064-171000-
   West Central Minnesota

CITY           SKY/WX    TMP DP  RH WIND       PRES   REMARKS
FERGUS FALLS   DRIZZLE   64  64 100 N8        29.71S
WHEATON        CLOUDY    64  61  88 NW14G21   29.74S
MORRIS         LGT RAIN  66  64  94 N14       29.68S
ALEXANDRIA     LGT RAIN  64  64 100 N17G24    29.67S
ELBOW LAKE     LGT RAIN  64  64 100 NW13      29.70S
WADENA         RAIN      63  63 100 N8        29.70S
GLENWOOD       DRIZZLE   64  63  94 N20       29.65S
APPLETON       RAIN      66  63  88 NW13G20   29.68R
BENSON         DRIZZLE   66  63  88 N13G22    29.67R
ORTONVILLE     CLOUDY    64  63  94 MISG      29.71S FOG
MADISON        LGT RAIN  66  66 100 NW17      29.70R
WILLMAR        RAIN      64  64 100 NW20G26   29.62R
$$
MNZ033>034-036-042>043-049>051-058-059-171000-
   Central Minnesota

CITY           SKY/WX    TMP DP  RH WIND       PRES   REMARKS
ST CLOUD       CLOUDY    65  65 100 NE9G18    29.52F
SAUK CENTRE    DRIZZLE   63  62  96 N16G23    29.62R
PAYNESVILLE    DRIZZLE   64  63  98 N20       29.58R
AITKIN         LGT RAIN  61  57  88 N15G22    29.63S
PINE RIVER     RAIN      59  57  94 N12       29.73F
BRAINERD       LGT RAIN  61  60  97 N14       29.64F
STAPLES        HVY RAIN  61  61 100 N13       29.67F
LONG PRAIRIE   LGT RAIN  61  61 100 NW12G22   29.63S
LITTLE FALLS   DRIZZLE   61  59  94 N8G16     29.60R
LITCHFIELD     DRIZZLE   64  64 100 NW18G30   29.53R
BUFFALO        DRIZZLE   67  65  93 N9        29.49S
MAPLE LAKE     LGT RAIN  68  67  97 NE3       29.50S
HUTCHINSON     LGT RAIN  66  65  99 NW18G28   29.50R
$$
MNZ037-044-045-052-053-171000-
   East Central Minnesota

CITY           SKY/WX    TMP DP  RH WIND       PRES   REMARKS
PRINCETON      DRIZZLE   66  64  94 N8G17     29.52S
MORA           CLOUDY    63  61  94 NE6       29.57
RUSH CITY      RAIN      66  64  95 CALM      29.55S
MOOSE LAKE     DRIZZLE   61  59  94 NE9G18    29.60S
HINCKLEY       CLOUDY    64  64 100 NE7       29.57F
CLOQUET        CLOUDY    61  59  94 NE14G21   29.65F
MCGREGOR       CLOUDY    61  59  94 N9G17     29.65S
$$
MNZ071>073-080-081-089-090-097-098-171000-
   Southwest Minnesota

CITY           SKY/WX    TMP DP  RH WIND       PRES   REMARKS
MONTEVIDEO     DRIZZLE   64  64 100 N12G18    29.66R
GRANITE FALLS  LGT RAIN  66  65  96 W14G22    29.67R
CANBY          DRIZZLE   65  64  96 W14G24    29.72R
MARSHALL       LGT RAIN  65  63  93 NW20G25   29.67S
REDWOOD FALLS  RAIN      65  63  93 NW22G31   29.60R
OLIVIA         DRIZZLE   63  61  94 NW17G25   29.58R
PIPESTONE      LGT RAIN  64  63  94 NW16G22   29.74S
WINDOM         CLOUDY    64  63  94 W16G24    29.66R
WORTHINGTON    CLOUDY    64  63  94 NW13      29.71S
JACKSON        CLOUDY    64  61  88 W15       29.68R
TRACY          LGT RAIN  65  65  98 NW15G22   29.68R
SLAYTON        CLOUDY    64  59  84 NW15G21   29.71S
$$
MNZ065>067-074>077-082>085-091>093-171000-
   South Central Minnesota

CITY           SKY/WX    TMP DP  RH WIND       PRES   REMARKS
MANKATO        RAIN      65  63  93 SW25G40   29.46F FOG
NEW ULM        RAIN      64  63  94 W30G45    29.52R
ST JAMES       CLOUDY    64  63  94 W22G32    29.60R
FAIRMONT       CLOUDY    67  63  87 W16       29.65R
GLENCOE        LGT RAIN  66  67 100 N5        29.44S
FARIBAULT      MOCLDY    66  63  88 S12G23    29.51F
OWATONNA       MOCLDY    66  63  88 S20G26    29.55F
WASECA         CLOUDY    64  61  88 SW17G28   29.55F
ALBERT LEA     CLOUDY    70  66  88 SW13      29.62S
$$
MNZ078>079-086>088-094>096-171000-
   Southeast Minnesota

CITY           SKY/WX    TMP DP  RH WIND       PRES   REMARKS
ROCHESTER      CLOUDY    66  65  96 SW17G23   29.62S
RED WING       CLOUDY    70  63  78 MISG      29.54S
STANTON        CLOUDY    68  63  83 S10G18    29.50F
DODGE CENTER   MOCLDY    66  63  88 S16       29.59F
WINONA         CLOUDY    70  64  83 S6        29.62R
AUSTIN         MOCLDY    66  63  88 SW12G17   29.62F
PRESTON        CLOUDY    65  62  87 SW9       29.65S
$$
ABBREVIATIONS USED IN REMARKS
   TC - TEMPERATURES IN CELSIUS
  WCI - WIND CHILL INDEX
   HX - HEAT INDEX
  VSB - VISIBILITY
$$




USA.gov is the U.S. government's official web portal to all federal, state and local government web resources and services.